Location: Brantley
(31.5822°N, 86.2569°W)
Time: 01:32:57
(UTC+00:00)

Courier 1B Rocket - Pass Details

Date: 20 February 2026
Orbit: 920 x 1201 km, 28.2° (Epoch: 10 March)

Event Time Altitude Azimuth Distance (km) Brightness Sun altitude
Rises 03:41:57 0° 272° (W) 3,580 8.5 -52.3°
Enters shadow 03:43:19 - 270° (W) 3,097 8.1 -52.5°
Reaches altitude 10° 03:44:35 10° 267° (W) 2,659 - -52.8°
Maximum altitude 03:50:47 53° 193° (SSW) 1,196 - -54.0°
Drops below altitude 10° 03:57:23 10° 118° (ESE) 2,827 - -55.2°
Sets 04:00:15 0° 114° (ESE) 3,826 - -55.7°
